Airfield :







YOU CAN JOIN US ON...

 
LOGIN :

Register | Disclaimer

   EN    FR    IT 

 









Legend :    VFR   Marginal VFR   IFR   Intensive IFR   Very Intensive IFR
Visi :
Ceiling :
>= 8 km
>= 3000ft
5 to 8 km
1000 to 3000 ft
1500m to 5 km
500 to 1000 ft
800 to 1500m
200 to 500 ft
< 800m
< 200 ft
Symbols :   Thunderstorms  Fog  Heavy snow  Heavy precipitations  Wind > 20 kt






- Airport Elevation : 198 ft
- IATA code : STM


SBSN - Maestro Wilson Fonseca Int.

CURRENT METAR :
  • 070800Z 21004KT 9999 FEW013 24/24 Q1014

EXPIRED METARs :
  • 070700Z 20003KT 9999 FEW013 24/23 Q1013
  • 070600Z 20003KT 9999 FEW014 24/24 Q1013

TAF TAF SBSN
Valid from the 07 at 06:00 until the 08 at 06:00 UTC


070300Z 0706/0806 00000KT 9999 FEW015 TN24/0706Z TX30/0718Z
BECMG 0712/0714 BKN015
BECMG 0714/0718 SCT018 FEW020TCU
BECMG 0720/0722 SCT025 RMK PED
SBAZ FIR / South America



MET'MAP, your aeronautical weather chart ! - Copyright ORBIFLY December 2007 - Disclaimer

ORBIFLY MET'MAP TEAM :

Programming & Development : Alexandra Zaïnal
Concept & original design : Baudouin d'Aumeries
Assistance for programming : Marc-Olivier Méhu
Technical & hardware support : Manuel Goepfert

Contact : metmap@orbifly.com




SOURCES & CREDITS :

   NOAA